Wind_Speed
13 10 9 8 7 7 6 5 6 7 9 9 10 10 10 11 9 10 8 11 10 8
11 10 10 8 6 7 6 5 5 5 8 8 9 9 8 9 9 8 10 10 11 11
11 10 9 7 6 6 6 6 5 6 8 8 8 8 8 9 9 9 10 9 11 11
11 10 8 7 6 6 5 6 4 7 8 8 9 9 8 8 9 9 9 10 11 11
13 11 9 7 5 5 5 6 5 7 7 7 8 8 8 9 9 10 10 11 12 14
13 11 9 7 5 5 5 5 6 7 8 7 6 7 8 9 10 9 10 10 11 13
14 12 10 9 7 5 5 7 6 7 8 8 8 7 8 9 10 11 10 9 9 12
17 14 11 10 8 7 6 7 7 8 8 8 9 8 8 9 10 11 11 11 10 12
17 16 13 11 10 9 8 9 9 9 8 9 9 10 10 9 9 10 11 12 13 13
16 18 16 15 12 11 11 11 12 12 12 12 10 8 9 8 9 9 11 13 15 15
19 18 18 16 16 15 13 12 11 10 10 9 9 7 5 6 8 10 13 14 16 15
21 21 19 19 18 15 13 12 11 10 8 8 9 6 4 4 6 8 10 11 16 15
23 22 22 20 18 15 13 12 10 10 9 9 9 8 6 6 7 9 9 10 11 15
22 23 23 21 17 16 13 11 11 10 10 10 9 7 8 7 8 9 7 8 10 11
Wind_Direction
137 130 124 119 119 97 78 46 45 41 47 41 36 33 38 53 30 35 32 38 27 30
139 133 124 126 117 108 102 70 46 47 52 39 34 30 30 45 47 36 25 24 22 26
143 136 131 126 119 108 89 82 76 60 60 48 42 41 34 35 32 38 31 14 23 21
140 136 135 131 125 106 101 91 79 66 64 60 56 52 49 42 32 33 27 15 18 17
150 151 143 142 122 111 110 96 81 70 78 66 55 50 55 54 42 32 27 21 17 12
151 153 150 139 138 119 116 108 95 84 78 76 70 62 53 52 49 42 33 23 18 12
160 162 161 159 136 128 134 114 106 95 77 73 69 70 63 58 55 49 42 32 25 19
171 165 160 150 139 135 135 117 106 98 89 79 68 62 70 65 59 53 47 38 33 27
167 159 157 150 148 137 132 119 115 101 93 87 77 66 69 76 70 61 52 42 38 32
173 162 158 151 146 148 139 126 114 106 101 93 83 74 68 73 82 77 62 49 41 36
174 164 156 152 156 148 138 129 123 119 115 104 89 79 81 77 84 80 70 57 45 38
172 168 158 158 157 148 140 131 126 118 117 114 103 82 85 90 83 79 71 64 52 40
178 170 164 163 154 147 146 142 131 121 110 116 115 77 66 81 88 79 70 69 69 45
171 171 171 162 155 148 145 145 141 131 116 110 104 84 67 75 84 77 78 69 54 47
Height
822 825 826 829 831 830 832 835 833 834 829 828 826 826 824 819 826 823 825 820 820 818
823 825 825 830 832 828 830 831 835 834 828 830 828 829 829 824 822 825 825 823 821 817
824 825 827 830 832 832 831 830 833 833 829 830 831 830 831 828 827 825 824 826 822 820
824 827 830 832 834 830 832 832 835 832 831 832 832 831 832 831 829 827 826 828 824 821
823 827 830 833 834 832 833 832 834 833 832 832 834 835 833 830 830 830 828 826 824 823
822 826 830 831 835 834 834 834 835 834 833 833 834 835 835 833 831 831 830 829 828 825
821 824 828 832 832 834 837 834 835 834 834 835 835 835 835 834 833 832 832 831 831 827
820 823 828 829 832 835 838 835 835 836 836 837 837 836 836 836 835 834 834 833 831 828
820 821 825 828 832 835 838 834 835 836 837 837 838 838 836 837 837 837 836 835 831 826
821 820 822 826 831 836 836 836 836 837 838 838 839 839 838 838 838 838 837 834 830 827
818 821 822 825 832 834 835 836 837 838 839 839 840 841 840 839 838 837 836 834 832 830
814 819 822 828 832 833 835 836 838 839 840 840 841 841 840 839 838 837 835 834 834 832
814 817 824 829 830 832 835 837 839 840 840 841 842 842 840 838 838 837 836 836 835 835
814 819 825 828 829 831 834 836 838 840 841 842 842 842 841 838 837 837 838 838 838 837